Location: Caltech
(34.1382°N, 118.1253°W)
Time: 03:10:06
(UTC-07:00)

Iridium 18 - Visible Passes

Search period start: 26 August 2016 00:00
Search period end: 05 September 2016 00:00
Orbit: 776 x 779 km, 86.4° (Epoch: 25 August)

Date Brightness Start Highest point End Pass type
(mag) Time Alt. Az. Time Alt. Az. Time Alt. Az.
26 Aug 8.5 00:20:30 10° NNW 00:20:39 11° NNW 00:20:39 11° NNW visible
26 Aug 8.4 23:46:52 10° N 23:47:09 12° N 23:47:09 12° N visible
27 Aug 8.4 23:13:39 10° NNE 23:13:40 10° NNE 23:13:40 10° NNE visible
29 Aug 8.5 23:46:59 10° N 23:47:10 11° N 23:47:10 11° N visible
30 Aug 8.3 23:13:31 10° N 23:13:41 11° N 23:13:41 11° N visible
02 Sep 8.4 23:13:32 10° N 23:13:45 11° N 23:13:45 11° N visible
03 Sep 8.3 22:40:13 10° NNE 22:40:18 10° NNE 22:40:18 10° NNE visible
